Weather History for Hill City, KS

Change the Weather History Date:

Saturday, November 17, 2012

  Actual Average Record
Temperature  
Mean Temperature 52 °F 40 °F  
Max Temperature 66 °F 53 °F 82 °F (1943)
Min Temperature 38 °F 27 °F 0 °F (1959)
Degree Days  
Heating Degree Days 14    
Growing Degree Days 2 (Base 50)    
Moisture  
Dew Point 34 °F    
Average Humidity 60    
Maximum Humidity 76    
Minimum Humidity 32    
Precipitation  
Precipitation 0.00 in 0.04 in 0.18 in (2004)
Month to date precipitation 0.00 0.63  
Year to date precipitation 9.74 21.91  
Sea Level Pressure  
Sea Level Pressure 30.11 in    
Wind  
Wind Speed 10 mph (SSW)    
Max Wind Speed 17 mph    
Max Gust Speed 24 mph    
Visibility 10 miles    
Events      
T = Trace of Precipitation, MM = Missing Value Source: NWS Daily Summary

Daily Weather History Graph

Daily Weather History Graph

Search for Another Location

Airport:

Trip Planner

Search our weather history database for the weather conditions in past years. The results will help you decide how hot, cold, wet, or windy it might be!

Date:

Astronomy

Nov. 17, 2012 Rise Set
Actual Time 7:25 AM CST 5:22 PM CST
Civil Twilight 6:56 AM CST 5:51 PM CST
Nautical Twilight 6:24 AM CST 6:24 PM CST
Astronomical Twilight 5:52 AM CST 6:55 PM CST
Moon 11:11 AM CST (11/17) 9:34 PM CST (11/17)
Length of Visible Light 10h 54m
Length of Day
9h 56m
Waxing Crescent, 20% of the Moon is Illuminated
Nov 17
Waxing Crescent
Nov 20
First Quarter
Nov 28
Full
Dec 6
Last Quarter
Dec 13
New

Hourly Weather History & Observations

Time (CST) Temp. Windchill Dew Point Humidity Pressure Visibility Wind Dir Wind Speed Gust Speed Precip Events Conditions
12:53 AM 44.1 °F 39.0 °F 35.1 °F 71% 30.19 in 10.0 mi South 9.2 mph - N/A   Clear
1:53 AM 44.1 °F 38.6 °F 35.1 °F 71% 30.17 in 10.0 mi South 10.4 mph 16.1 mph N/A   Clear
2:53 AM 44.1 °F 38.1 °F 34.0 °F 68% 30.15 in 10.0 mi South 11.5 mph - N/A   Clear
3:53 AM 43.0 °F 35.1 °F 33.1 °F 68% 30.12 in 10.0 mi South 17.3 mph 23.0 mph N/A   Clear
4:53 AM 42.1 °F 34.5 °F 33.1 °F 70% 30.12 in 10.0 mi South 15.0 mph 23.0 mph N/A   Clear
5:53 AM 41.0 °F 33.1 °F 32.0 °F 70% 30.12 in 10.0 mi South 15.0 mph - N/A   Clear
6:53 AM 39.9 °F 34.5 °F 32.0 °F 73% 30.14 in 10.0 mi South 8.1 mph - N/A   Clear
7:53 AM 39.0 °F 33.4 °F 30.9 °F 73% 30.15 in 10.0 mi SSE 8.1 mph - N/A   Clear
8:53 AM 45.0 °F 39.3 °F 33.1 °F 63% 30.15 in 10.0 mi SSW 11.5 mph - N/A   Clear
9:53 AM 48.9 °F - 35.1 °F 59% 30.14 in 10.0 mi SSW 16.1 mph 23.0 mph N/A   Clear
10:53 AM 53.1 °F - 37.0 °F 55% 30.14 in 10.0 mi SSW 16.1 mph 24.2 mph N/A   Clear
11:53 AM 57.9 °F - 37.0 °F 46% 30.11 in 10.0 mi SSW 12.7 mph 19.6 mph N/A   Clear
1:53 PM 63.0 °F - 35.1 °F 35% 30.05 in 10.0 mi SSW 10.4 mph - N/A   Clear
2:53 PM 64.0 °F - 34.0 °F 33% 30.04 in 10.0 mi SSW 8.1 mph - N/A   Clear
3:53 PM 64.9 °F - 34.0 °F 32% 30.05 in 10.0 mi SSW 10.4 mph - N/A   Clear
4:53 PM 63.0 °F - 33.1 °F 33% 30.05 in 10.0 mi SW 5.8 mph - N/A   Clear
5:53 PM 48.9 °F - 30.9 °F 50% 30.09 in 10.0 mi WNW 4.6 mph - N/A   Clear
6:53 PM 42.1 °F - 28.9 °F 60% 30.10 in 6.0 mi Calm Calm - N/A   Haze
7:53 PM 39.9 °F - 28.9 °F 65% 30.11 in 10.0 mi Calm Calm - N/A   Clear
8:53 PM 48.9 °F - 37.9 °F 66% 30.09 in 10.0 mi South 4.6 mph - N/A   Clear
9:53 PM 48.9 °F - 39.0 °F 69% 30.09 in 10.0 mi SSW 6.9 mph - N/A   Clear
10:53 PM 46.9 °F - 39.0 °F 74% 30.09 in 10.0 mi SSW 5.8 mph - N/A   Clear
11:53 PM 45.0 °F 41.8 °F 37.9 °F 76% 30.07 in 10.0 mi South 5.8 mph - N/A   Clear